[[{"header":{"parameterUnit":"m.s-1","parameterCategory":2,"la1":30.2991,"la2":30.254,"lo1":-89.0895,"lo2":-89.0444,"dy":0.0017,"dx":0.0017,"nx":28,"ny":28,"refTime":"2024-02-16T09:00:00:Z","depth":"0","parameterNumber":2,"parameterNumberName":"U-component_of_CURRENTS"},"data":[0,0,0,0,0,0,0,0,0,0,0,0,0,0,0,0,0,0,0,0,0,0,0,0,0,0,0,0,0,0,0,0,0,0,0,0,0,0,0,0,0,0,0,0,0,0,0,0,0,0,0,0,0,0,0,0,0,0,0.2436,0.2436,0,0.2421,0.2421,0.2422,0.2409,0.2409,0.2408,0.2408,0.2357,0.2356,0.2355,0,0,0,0,0,0,0,0,0,0,0,0,0,0.2438,0.2439,0.2436,0.2436,0.2435,0.2421,0.2421,0.2422,0.2409,0.2409,0.2408,0.2408,0.2357,0.2356,0.2355,0,0,0,0,0,0,0,0,0,0,0,0,0,0.2434,0.2439,0.2436,0.2425,0.2424,0.2421,0.2421,0.2422,0.2409,0.2409,0.2408,0.2407,0.2358,0.2356,0.2355,0.2357,0,0,0.235,0.235,0,0,0,0,0,0,0,0,0.2435,0.2435,0.2427,0.2426,0.2425,0.2414,0.2403,0.2397,0.2409,0.2418,0.2408,0.2407,0.2371,0.2369,0.2372,0.2355,0.2352,0.235,0.2349,0.2349,0.2348,0,0,0,0,0,0,0,0.2435,0.2435,0.2433,0.2427,0.2425,0.2416,0.2415,0.2403,0.2399,0.2417,0.2415,0.241,0.2371,0.2373,0.237,0.2352,0.235,0.2349,0.2348,0.2347,0.2396,0.2398,0,0,0,0,0,0,0.2433,0.2436,0.2433,0.2432,0.2425,0.2416,0.2416,0.242,0.24,0.2396,0.241,0.2409,0.2376,0.2372,0.2368,0.2464,0.2349,0.2347,0.2346,0.2394,0.2397,0.2399,0,0,0,0,0,0,0.2434,0.2434,0.2434,0.2431,0.243,0.2417,0.2422,0.242,0.243,0.2395,0.2391,0.2422,0.2375,0.237,0.2383,0.2458,0.2346,0.2345,0.2391,0.2395,0.2398,0.2595,0,0,0,0,0,0,0.2434,0.2434,0.2444,0.2431,0.243,0.2467,0.2422,0.242,0.2425,0.2424,0.2403,0.2398,0.2374,0.2385,0.2381,0.2454,0.2344,0.2389,0.2393,0.2397,0.2586,0.2605,0.2621,0,0,0,0,0,0.2434,0.2472,0.2445,0.2445,0.2442,0.2469,0.247,0.2458,0.2427,0.2459,0.2435,0.2399,0.2409,0.2386,0.2381,0.2455,0.2387,0.2392,0.2397,0.2578,0.2601,0.262,0,0,0,0,0,0,0.2488,0.2472,0.2444,0.2475,0.2478,0.2466,0.2499,0.2467,0.2472,0.2472,0.2422,0.2417,0.2466,0.2418,0.2394,0.2478,0.2394,0.2398,0.2533,0.2554,0.2572,0.2666,0.2343,0,0,0,0,0,0.2498,0.2524,0.2498,0.253,0.2536,0.2511,0.2517,0.2506,0.2501,0.2503,0.2485,0.2469,0.2482,0.2482,0.2485,0.2517,0.255,0.2559,0.2577,0.2593,0.2664,0.2761,0.2796,0.2415,0.2415,0.2415,0,0,0.2537,0.2524,0.2544,0.2543,0.2547,0.26,0.2518,0.2551,0.2604,0.2496,0.2571,0.2535,0.2504,0.2563,0.2579,0.2532,0.2718,0.2599,0.2613,0.2677,0.277,0.2808,0.2842,0.2419,0.2418,0.2418,0,0,0.2649,0.2611,0.2682,0.2685,0.2688,0.2675,0.2686,0.2681,0.2693,0.2731,0.2686,0.2704,0.2691,0.2715,0.2715,0.2824,0.2813,0.2798,0.2964,0.3056,0.309,0.3121,0.3221,0.3259,0.28,0.2801,0.2801,0,0.2685,0.2765,0.271,0.2773,0.2798,0.2719,0.2807,0.2814,0.2814,0.2858,0.2785,0.2835,0.2788,0.2898,0.2934,0.2876,0.2922,0.2888,0.3087,0.3117,0.3145,0.324,0.328,0.2811,0.281,0.2809,0.2808,0,0.2862,0.291,0.2958,0.3008,0.3025,0.3087,0.3071,0.3109,0.3083,0.309,0.3177,0.3114,0.3147,0.3124,0.3063,0.3233,0.3202,0.3107,0.3048,0.3197,0.3285,0.3323,0.2825,0.2822,0.2819,0.2816,0,0,0.2995,0.3065,0.3083,0.3122,0.3149,0.3172,0.3284,0.3364,0.3422,0.3434,0.3536,0.3558,0.3504,0.3502,0.3418,0.3488,0.3696,0.3393,0.3393,0.3523,0.3933,0.3814,0.3842,0.3635,0.3642,0.3648,0.3921,0,0.3156,0.3294,0.3302,0.3438,0.3506,0.3478,0.3565,0.3616,0.3625,0.3693,0.3695,0.3729,0.3648,0.3624,0.3712,0.3673,0.3804,0.3634,0.3746,0.3751,0.3651,0.3885,0.3654,0.3869,0.3957,0.3963,0.3968,0,0.3353,0.3404,0.3555,0.3618,0.3646,0.3707,0.3798,0.3861,0.395,0.3954,0.4035,0.3988,0.4108,0.3961,0.4141,0.4033,0.4052,0.4033,0.404,0.3902,0.3704,0.3729,0.3933,0.3742,0.4025,0.402,0.4016,0,0.3469,0.3588,0.3696,0.3721,0.3782,0.3854,0.3889,0.3964,0.4018,0.4111,0.4143,0.4266,0.427,0.4373,0.433,0.4261,0.4497,0.4373,0.433,0.432,0.4137,0.4098,0.4198,0.4588,0.4588,0.4587,0.4586,0,0.3637,0.3732,0.3742,0.38,0.3912,0.3917,0.4034,0.4087,0.4155,0.422,0.4263,0.4316,0.437,0.446,0.4468,0.4529,0.463,0.4464,0.4418,0.4193,0.4158,0.3984,0.3909,0.4597,0.4595,0.4593,0.4591,0,0.3776,0.3794,0.3912,0.3964,0.3975,0.4049,0.4107,0.4163,0.422,0.4305,0.4339,0.4419,0.4519,0.4578,0.4689,0.4661,0.4586,0.4722,0.4457,0.4376,0.4126,0.4069,0.412,0.4018,0.4778,0.4778,0.4777,0,0.3872,0.3938,0.4002,0.4033,0.4063,0.4134,0.4166,0.4212,0.4243,0.4343,0.4378,0.4499,0.4547,0.4701,0.4671,0.4756,0.4574,0.457,0.4405,0.4181,0.4086,0.3947,0.3847,0.4254,0.4249,0.4245,0.4242,0,0.4032,0.404,0.4091,0.4132,0.4169,0.4209,0.4243,0.4271,0.4294,0.4338,0.4388,0.4444,0.4557,0.4494,0.4558,0.4555,0.431,0.449,0.4336,0.3802,0.3588,0.3436,0.401,0.4206,0.421,0.4212,0.4214,0.4216,0.4122,0.4159,0.4167,0.4194,0.4229,0.4213,0.4196,0.4191,0.4196,0.4154,0.4303,0.4293,0.4255,0.43,0.4277,0.4014,0.4112,0.3853,0.385,0.3767,0.3529,0.4042,0.4105,0.4107,0.411,0.4112,0.4114,0,0.4159,0.4154,0.4204,0.419,0.4174,0.4194,0.4167,0.4076,0.3982,0.4022,0.402,0.3929,0.3805,0.3741,0.3527,0.3378,0.3248,0.3258,0.3004,0.2975,0.3497,0.3323,0.3119,0.3119,0.3119,0.3119,0.3119,0.312,0.4177,0.4164,0.4138,0.4077,0.4063,0.3957,0.3899,0.3775,0.3745,0.3561,0.3476,0.3497,0.3387,0.3152,0.2862,0.2797,0.2591,0.249,0.2552,0.2856,0.2908,0.2958,0.2775,0.246,0.2459,0.1861,0.1857,0.1853]},{"header":{"parameterUnit":"m.s-1","parameterCategory":2,"la1":30.2991,"la2":30.254,"lo1":-89.0895,"lo2":-89.0444,"dy":0.0017,"dx":0.0017,"nx":28,"ny":28,"refTime":"2024-02-16T09:00:00:Z","depth":"0","parameterNumber":3,"parameterNumberName":"V-component_of_CURRENTS"},"data":[0,0,0,0,0,0,0,0,0,0,0,0,0,0,0,0,0,0,0,0,0,0,0,0,0,0,0,0,0,0,0,0,0,0,0,0,0,0,0,0,0,0,0,0,0,0,0,0,0,0,0,0,0,0,0,0,0,0,0.0108,0.0108,0,0.0065,0.0064,0.0064,0.0009,0.0008,0.0007,0.0006,-0.0058,-0.0059,-0.006,0,0,0,0,0,0,0,0,0,0,0,0,0,0.0105,0.0105,0.0108,0.0108,0.0107,0.0065,0.0064,0.0063,0.0009,0.0008,0.0007,0.0006,-0.0058,-0.0059,-0.006,0,0,0,0,0,0,0,0,0,0,0,0,0,0.0087,0.0105,0.0108,0.0076,0.0073,0.0065,0.0064,0.0063,0.0009,0.0008,0.0007,0.0006,-0.0057,-0.0059,-0.006,-0.0047,0,0,-0.0065,-0.0065,0,0,0,0,0,0,0,0,0.0088,0.0087,0.0081,0.0078,0.0074,0.0042,0.0039,0.0026,0.0009,0.0032,0.0006,0.0005,-0.0025,-0.0029,-0.0036,-0.005,-0.0052,-0.0065,-0.0066,-0.0066,-0.0067,0,0,0,0,0,0,0,0.009,0.0089,0.009,0.0081,0.0077,0.005,0.0047,0.0036,0.0009,0.003,0.0026,0.0024,-0.0027,-0.0035,-0.0038,-0.0053,-0.0065,-0.0066,-0.0067,-0.0068,-0.0065,-0.0064,0,0,0,0,0,0,0.0101,0.009,0.0091,0.0088,0.008,0.0052,0.0047,0.0053,0.001,0.0002,0.0025,0.0021,-0.0031,-0.0036,-0.0041,-0.0008,-0.0066,-0.0068,-0.0069,-0.0066,-0.0065,-0.0064,0,0,0,0,0,0,0.0101,0.0102,0.0093,0.0089,0.0086,0.0053,0.0059,0.0052,0.0043,0.0006,-0.0002,0.0022,-0.0032,-0.0038,-0.0048,-0.0012,-0.0069,-0.007,-0.0067,-0.0066,-0.0064,0.0045,0,0,0,0,0,0,0.0102,0.0103,0.011,0.009,0.0086,0.0105,0.006,0.0052,0.0044,0.0039,0.0002,-0.0006,-0.0034,-0.0046,-0.005,-0.0015,-0.0071,-0.0068,-0.0066,-0.0065,0.004,0.005,0.0058,0,0,0,0,0,0.0102,0.0133,0.0111,0.0111,0.0098,0.0107,0.0103,0.0074,0.0045,0.0057,0.0021,-0.0005,-0.0037,-0.0046,-0.0051,-0.0016,-0.0069,-0.0067,-0.0065,0.0036,0.0048,0.0058,0,0,0,0,0,0,0.0143,0.013,0.0105,0.0131,0.0121,0.0098,0.0107,0.0081,0.0062,0.0051,0.0007,-0.0001,0.0007,-0.0024,-0.0033,-0.0012,-0.0056,-0.0055,0.0022,0.0033,0.0042,0.0059,-0.0072,0,0,0,0,0,0.0154,0.0168,0.0148,0.0168,0.0165,0.0132,0.0129,0.0109,0.0089,0.0079,0.0053,0.0024,0.0015,0.0006,-0.0007,0.0003,-0.0004,0.002,0.003,0.0038,0.0047,0.0058,0.007,-0.0057,-0.0057,-0.0057,0,0,0.018,0.0169,0.0181,0.0177,0.0162,0.0178,0.0128,0.0134,0.0147,0.0077,0.0087,0.0059,0.0024,0.0038,0.0039,0.0015,0.0076,0.0041,0.0048,0.0053,0.0062,0.0074,0.0085,-0.0055,-0.0055,-0.0056,0,0,0.0243,0.0225,0.0257,0.0248,0.0231,0.0216,0.0221,0.02,0.019,0.0196,0.015,0.014,0.0123,0.0108,0.0097,0.0146,0.0127,0.0142,0.0202,0.0213,0.0224,0.0233,0.0273,0.0285,0.0144,0.0144,0.0144,0,0.0267,0.0293,0.0269,0.0287,0.0282,0.0239,0.0264,0.0261,0.0241,0.0238,0.0215,0.0192,0.0161,0.0176,0.0191,0.0171,0.018,0.0167,0.0228,0.0236,0.0244,0.0282,0.0294,0.015,0.0149,0.0148,0.0148,0,0.0347,0.0355,0.0374,0.0376,0.038,0.039,0.0376,0.0382,0.0359,0.0346,0.0354,0.0314,0.0297,0.0292,0.0258,0.0297,0.029,0.0243,0.0206,0.0264,0.03,0.0311,0.0158,0.0156,0.0154,0.0153,0,0,0.0406,0.0425,0.0425,0.0415,0.0414,0.0414,0.0455,0.0463,0.0467,0.0465,0.0482,0.0469,0.0435,0.0419,0.0378,0.0384,0.0454,0.0343,0.0341,0.0395,0.0509,0.0468,0.0475,0.0419,0.0421,0.0422,0.0525,0,0.0458,0.0496,0.0505,0.0529,0.0529,0.0511,0.0542,0.0544,0.0539,0.0551,0.053,0.0527,0.0489,0.0473,0.0484,0.0461,0.0481,0.0432,0.0433,0.0434,0.0399,0.0485,0.0466,0.0552,0.0535,0.0536,0.0537,0,0.0506,0.0518,0.0555,0.055,0.0553,0.0574,0.0577,0.0601,0.0622,0.0619,0.0632,0.0611,0.0643,0.0577,0.0615,0.0589,0.0562,0.0541,0.0543,0.0471,0.0411,0.0482,0.0571,0.0414,0.0553,0.0552,0.0551,0,0.0493,0.0533,0.0553,0.0551,0.0568,0.0584,0.0597,0.0615,0.0633,0.066,0.0678,0.0705,0.072,0.0714,0.0698,0.0659,0.0732,0.0665,0.0611,0.0609,0.0575,0.0566,0.0518,0.0677,0.0677,0.0677,0.0676,0,0.0499,0.0507,0.0543,0.0539,0.0564,0.0572,0.0601,0.0618,0.0654,0.0701,0.0705,0.076,0.0751,0.079,0.0755,0.0749,0.0788,0.0652,0.0636,0.0614,0.0607,0.045,0.0352,0.0681,0.068,0.0679,0.0678,0,0.0466,0.0491,0.0505,0.0538,0.0551,0.0561,0.0609,0.0639,0.0664,0.0735,0.0754,0.0826,0.09,0.089,0.0897,0.0822,0.0722,0.0774,0.0767,0.0747,0.0515,0.0424,0.0378,0.0315,0.0743,0.0743,0.0743,0,0.0454,0.0458,0.0499,0.0529,0.0547,0.0574,0.061,0.0639,0.0688,0.0793,0.0847,0.093,0.1034,0.1049,0.095,0.0911,0.0747,0.0785,0.0681,0.0525,0.0413,0.0354,0.0299,0.0704,0.0703,0.0703,0.0703,0,0.0436,0.0452,0.048,0.0535,0.0576,0.062,0.0677,0.072,0.079,0.0881,0.1037,0.1131,0.1145,0.114,0.1025,0.0939,0.0654,0.0769,0.0611,0.0388,0.0319,0.0243,0.0629,0.0698,0.0699,0.0699,0.0699,0.0699,0.0439,0.046,0.0509,0.0556,0.0612,0.0682,0.0737,0.0839,0.0953,0.1133,0.1198,0.1402,0.1276,0.1152,0.0981,0.0616,0.0629,0.0481,0.0397,0.0363,0.0249,0.0633,0.066,0.066,0.066,0.066,0.0661,0,0.0451,0.0483,0.0535,0.0602,0.0666,0.0687,0.0802,0.0896,0.1078,0.1299,0.1466,0.1578,0.1346,0.108,0.0608,0.0311,0.0196,0.0137,0.0041,0.0012,0.0367,0.0306,0.0252,0.0252,0.0252,0.0252,0.0253,0.0253,0.0467,0.0511,0.0531,0.0629,0.0687,0.0795,0.087,0.1048,0.1239,0.1558,0.1768,0.1896,0.169,0.0734,0.0072,-0.0086,-0.0283,-0.0315,-0.0408,-0.0201,-0.0176,-0.0152,-0.0232,-0.0398,-0.0399,-0.0726,-0.073,-0.0733]}],[{"header":{"parameterUnit":"m.s-1","parameterCategory":2,"la1":30.2991,"la2":30.254,"lo1":-89.0895,"lo2":-89.0444,"dy":0.0017,"dx":0.0017,"nx":28,"ny":28,"refTime":"2024-02-16T09:00:00:Z","depth":"2","parameterNumber":2,"parameterNumberName":"U-component_of_CURRENTS"},"data":[0,0,0,0,0,0,0,0,0,0,0,0,0,0,0,0,0,0,0,0,0,0,0,0,0,0,0,0,0,0,0,0,0,0,0,0,0,0,0,0,0,0,0,0,0,0,0,0,0,0,0,0,0,0,0,0,0,0,0.1638,0.1637,0,0.1636,0.1636,0.1636,0.1629,0.1629,0.1629,0.1629,0.1632,0.1633,0.1633,0,0,0,0,0,0,0,0,0,0,0,0,0,0.1623,0.1623,0.1638,0.1637,0.1637,0.1636,0.1636,0.1636,0.1629,0.1629,0.1629,0.1628,0.1632,0.1633,0.1633,0,0,0,0,0,0,0,0,0,0,0,0,0,0.1627,0.1623,0.1638,0.1633,0.1632,0.1636,0.1636,0.1636,0.1629,0.1629,0.1629,0.1628,0.1632,0.1633,0.1633,0.1645,0,0,0.1635,0.1635,0,0,0,0,0,0,0,0,0.1627,0.1628,0.1634,0.1633,0.1633,0.1631,0.1632,0.1639,0.163,0.1632,0.1629,0.1628,0.1632,0.1633,0.1635,0.1645,0.1645,0.1635,0.1635,0.1635,0.1636,0,0,0,0,0,0,0,0.1627,0.1628,0.1638,0.1634,0.1633,0.1627,0.1627,0.1634,0.1635,0.1632,0.1631,0.1629,0.1632,0.1634,0.1635,0.1645,0.1635,0.1635,0.1636,0.1636,0.17,0.1701,0,0,0,0,0,0,0.1626,0.1628,0.1638,0.1638,0.1627,0.1627,0.1628,0.1633,0.1635,0.1635,0.1629,0.1629,0.1634,0.1634,0.1635,0.1702,0.1635,0.1636,0.1636,0.1698,0.17,0.1701,0,0,0,0,0,0,0.1626,0.1627,0.1638,0.1631,0.1632,0.1628,0.1634,0.1633,0.1648,0.1633,0.1633,0.1646,0.1633,0.1634,0.1655,0.1699,0.1636,0.1637,0.1697,0.1699,0.1701,0.1801,0,0,0,0,0,0,0.1625,0.1627,0.163,0.1632,0.1633,0.1653,0.1634,0.1634,0.1646,0.1646,0.1647,0.1646,0.1633,0.1654,0.1655,0.1699,0.1637,0.1695,0.1698,0.17,0.1796,0.1806,0.1815,0,0,0,0,0,0.1625,0.1636,0.1631,0.1632,0.1637,0.1653,0.1654,0.165,0.1648,0.1661,0.1662,0.1647,0.1671,0.1656,0.1657,0.1702,0.1694,0.1697,0.17,0.1791,0.1804,0.1814,0,0,0,0,0,0,0.1631,0.1636,0.1631,0.1641,0.1651,0.1652,0.1667,0.1663,0.1675,0.1679,0.1664,0.1664,0.17,0.1683,0.1666,0.1726,0.1681,0.1684,0.175,0.1762,0.1771,0.1779,0.1638,0,0,0,0,0,0.1633,0.1649,0.1647,0.1662,0.167,0.1672,0.1678,0.1677,0.1685,0.169,0.1693,0.1697,0.1712,0.1722,0.1726,0.1759,0.1761,0.1787,0.1797,0.1805,0.1812,0.1877,0.1894,0.1711,0.1711,0.1711,0,0,0.1636,0.1647,0.1651,0.1666,0.1678,0.17,0.1677,0.1699,0.1718,0.169,0.1727,0.1731,0.1727,0.1765,0.178,0.1759,0.1855,0.1809,0.1817,0.1818,0.1882,0.19,0.1916,0.1714,0.1713,0.1713,0,0,0.1653,0.1669,0.1681,0.1701,0.172,0.173,0.1741,0.1753,0.1759,0.1788,0.178,0.1809,0.1825,0.1838,0.1844,0.1907,0.1903,0.1913,0.1973,0.2037,0.2053,0.2067,0.2081,0.2096,0.1919,0.192,0.192,0,0.1657,0.1673,0.1688,0.1715,0.1733,0.175,0.1769,0.179,0.1806,0.1807,0.1811,0.1854,0.1861,0.1907,0.1942,0.1932,0.1954,0.1933,0.2052,0.2066,0.2079,0.209,0.2105,0.1925,0.1924,0.1924,0.1923,0,0.168,0.17,0.1722,0.1763,0.1786,0.1816,0.184,0.1859,0.1875,0.1886,0.193,0.1951,0.197,0.1994,0.1996,0.2089,0.2069,0.2059,0.2028,0.2104,0.2109,0.2123,0.1932,0.193,0.1929,0.1928,0,0,0.1677,0.1721,0.1734,0.1738,0.1813,0.182,0.1873,0.1897,0.1925,0.1959,0.1996,0.2052,0.2066,0.2075,0.209,0.2164,0.2282,0.2168,0.2169,0.219,0.2406,0.2372,0.2382,0.2313,0.2316,0.2319,0.2369,0,0.169,0.1713,0.1754,0.1793,0.1799,0.1846,0.1904,0.1934,0.1966,0.2014,0.2045,0.2097,0.2098,0.2131,0.2205,0.2265,0.2326,0.2267,0.2322,0.2322,0.2291,0.24,0.2181,0.2208,0.2383,0.2385,0.2386,0,0.17,0.1707,0.1738,0.1774,0.179,0.1838,0.1898,0.1958,0.2036,0.2073,0.2124,0.2136,0.2229,0.2235,0.2365,0.2336,0.2383,0.2427,0.243,0.2373,0.2315,0.2163,0.2226,0.2409,0.2407,0.2406,0.2404,0,0.1645,0.1693,0.1708,0.1732,0.18,0.1825,0.1881,0.1967,0.2026,0.2122,0.218,0.2239,0.2329,0.2381,0.2473,0.2426,0.2638,0.2559,0.2555,0.255,0.2359,0.2333,0.2661,0.2661,0.2661,0.2661,0.2661,0,0.1627,0.1637,0.1686,0.169,0.1741,0.1808,0.1882,0.1955,0.2079,0.2165,0.2227,0.2298,0.2393,0.2492,0.2515,0.2608,0.2663,0.259,0.2585,0.2384,0.2361,0.2525,0.2509,0.2663,0.2662,0.2662,0.2661,0,0.1569,0.161,0.1639,0.1698,0.1718,0.1776,0.189,0.1943,0.2096,0.2214,0.2251,0.2397,0.2518,0.2595,0.2721,0.2694,0.2749,0.2769,0.2515,0.2479,0.2579,0.2567,0.2691,0.2691,0.2691,0.2691,0.2691,0,0.1534,0.1552,0.1628,0.168,0.1719,0.1788,0.1841,0.1958,0.202,0.2246,0.2298,0.2465,0.2543,0.2728,0.271,0.2733,0.281,0.2559,0.2416,0.2612,0.2594,0.2582,0.257,0.2182,0.2178,0.2174,0.2171,0,0.15,0.1566,0.158,0.1665,0.173,0.1785,0.1854,0.1881,0.204,0.2138,0.23,0.2384,0.2557,0.2499,0.2587,0.2551,0.2518,0.2484,0.2805,0.2221,0.2141,0.2119,0.2123,0.214,0.2143,0.2145,0.2147,0.2148,0.1507,0.154,0.1596,0.1661,0.1742,0.1792,0.1787,0.185,0.1927,0.204,0.2168,0.225,0.2313,0.229,0.2253,0.222,0.2352,0.2229,0.2236,0.2247,0.2193,0.2118,0.2099,0.2102,0.2105,0.2107,0.2109,0,0.1533,0.1566,0.1593,0.1679,0.1711,0.1787,0.1807,0.1756,0.1786,0.1879,0.1975,0.1839,0.1845,0.193,0.181,0.1809,0.1743,0.175,0.1641,0.1675,0.1705,0.1618,0.1375,0.1372,0.137,0.1368,0,0,0.1555,0.157,0.1539,0.1594,0.1682,0.1709,0.1702,0.1641,0.1631,0.1568,0.1589,0.1726,0.1841,0.1559,0.1539,0.1441,0.1533,0.1381,0.1973,0.1877,0.1902,0.1992,0.19,0,0,0,0,0]},{"header":{"parameterUnit":"m.s-1","parameterCategory":2,"la1":30.2991,"la2":30.254,"lo1":-89.0895,"lo2":-89.0444,"dy":0.0017,"dx":0.0017,"nx":28,"ny":28,"refTime":"2024-02-16T09:00:00:Z","depth":"2","parameterNumber":3,"parameterNumberName":"V-component_of_CURRENTS"},"data":[0,0,0,0,0,0,0,0,0,0,0,0,0,0,0,0,0,0,0,0,0,0,0,0,0,0,0,0,0,0,0,0,0,0,0,0,0,0,0,0,0,0,0,0,0,0,0,0,0,0,0,0,0,0,0,0,0,0,0.0109,0.0109,0,0.0079,0.0078,0.0078,0.0056,0.0056,0.0056,0.0056,0.0014,0.0013,0.0012,0,0,0,0,0,0,0,0,0,0,0,0,0,0.0125,0.0125,0.0109,0.0109,0.0109,0.0079,0.0078,0.0078,0.0056,0.0056,0.0056,0.0056,0.0015,0.0013,0.0012,0,0,0,0,0,0,0,0,0,0,0,0,0,0.0107,0.0125,0.0109,0.0096,0.0094,0.0079,0.0078,0.0078,0.0056,0.0056,0.0056,0.0056,0.0015,0.0013,0.0012,0.0001,0,0,0.0006,0.0006,0,0,0,0,0,0,0,0,0.0108,0.0106,0.0098,0.0097,0.0095,0.0073,0.0069,0.0052,0.0056,0.0069,0.0056,0.0056,0.0034,0.0031,0.0022,-0.0001,-0.0003,0.0006,0.0005,0.0004,0.0004,0,0,0,0,0,0,0,0.011,0.0107,0.0095,0.0098,0.0096,0.0084,0.0081,0.0065,0.005,0.0068,0.0066,0.0066,0.0033,0.0024,0.0021,-0.0004,0.0006,0.0005,0.0004,0.0003,-0.0038,-0.0038,0,0,0,0,0,0,0.0119,0.0109,0.0096,0.0094,0.0104,0.0084,0.0081,0.0079,0.005,0.0047,0.0066,0.0066,0.0027,0.0023,0.002,0.0011,0.0005,0.0003,0.0002,-0.0038,-0.0038,-0.0038,0,0,0,0,0,0,0.0119,0.0118,0.0097,0.0103,0.0099,0.0084,0.0081,0.0078,0.0071,0.005,0.0046,0.0063,0.0027,0.0022,0.0008,0.0009,0.0002,0.0001,-0.0038,-0.0038,-0.0038,-0.0009,0,0,0,0,0,0,0.012,0.0118,0.012,0.0103,0.01,0.0091,0.0081,0.0077,0.0072,0.007,0.0046,0.0042,0.0026,0.001,0.0006,0.0007,-0.0001,-0.0038,-0.0038,-0.0038,-0.001,-0.0009,-0.0007,0,0,0,0,0,0.012,0.0126,0.012,0.0119,0.0103,0.0092,0.0088,0.0076,0.0072,0.0069,0.0053,0.0043,0.0006,0.0009,0.0004,0.0004,-0.0037,-0.0038,-0.0038,-0.0011,-0.0009,-0.0007,0,0,0,0,0,0,0.0134,0.0124,0.0117,0.0119,0.0108,0.0089,0.0088,0.0079,0.0063,0.0064,0.0041,0.0036,0.0023,0.001,0.0013,-0.0008,-0.0017,-0.0018,0.0005,0.0007,0.0008,0.0024,-0.0002,0,0,0,0,0,0.0138,0.014,0.0125,0.0127,0.0122,0.0105,0.0099,0.0091,0.0077,0.007,0.0053,0.0035,0.0018,0.001,-0.0008,-0.0018,-0.0026,-0.0022,-0.002,-0.0018,-0.0009,-0.0022,-0.002,-0.0038,-0.0038,-0.0038,0,0,0.0145,0.014,0.0141,0.013,0.012,0.0121,0.0101,0.0096,0.0097,0.0068,0.0062,0.004,0.0016,0.0003,-0.0004,-0.0007,-0.0018,-0.0019,-0.0017,-0.0009,-0.0021,-0.002,-0.0018,-0.0038,-0.0038,-0.0038,0,0,0.0163,0.0153,0.0162,0.0156,0.0146,0.0135,0.0136,0.0118,0.0107,0.0098,0.0076,0.0057,0.0033,0.0015,0.0004,0.0004,-0.001,-0.0004,0.0018,0.0006,0.0008,0.0009,0.0001,0.0001,-0.0002,-0.0002,-0.0002,0,0.0172,0.0184,0.0162,0.017,0.0173,0.0145,0.0158,0.014,0.0121,0.0117,0.0102,0.0065,0.004,0.0026,0.0023,0.0008,0.0001,0.0014,0.0009,0.0011,0.0012,0.0003,0.0003,-0.0001,-0.0001,-0.0001,-0.0001,0,0.0199,0.0209,0.0213,0.0216,0.021,0.0218,0.0195,0.0186,0.0171,0.0157,0.0137,0.0097,0.008,0.0061,0.0042,0.0034,0.0026,0.0013,0.0008,0.0015,0.0005,0.0005,0.0001,0.0001,0.0,0.0,0,0,0.0219,0.0232,0.0235,0.0253,0.024,0.0245,0.0237,0.023,0.0246,0.0199,0.021,0.0155,0.0133,0.0118,0.0083,0.0065,0.0057,0.0044,0.0043,0.0042,0.0035,0.0019,0.0017,0.0043,0.0043,0.0043,0.0025,0,0.025,0.0291,0.0279,0.0315,0.0335,0.0307,0.0309,0.0296,0.0284,0.0285,0.0223,0.0223,0.0154,0.0156,0.0118,0.008,0.0058,0.0063,0.0023,0.0022,0.0011,0.0016,0.0029,0.0013,0.0025,0.0025,0.0025,0,0.0285,0.0311,0.0355,0.0384,0.0389,0.0401,0.0417,0.0412,0.0391,0.0379,0.0346,0.0316,0.0269,0.0221,0.0138,0.0146,0.0094,0.0055,0.0053,0.003,0.0005,0.0006,0.0012,0.0024,0.0024,0.0024,0.0024,0,0.0334,0.0367,0.0412,0.0421,0.0438,0.0451,0.0455,0.0447,0.0466,0.0449,0.0479,0.0397,0.0386,0.0295,0.0205,0.0177,0.013,0.0081,0.0014,0.0012,0.0012,0.001,0.0032,0.0032,0.0032,0.0032,0.0032,0,0.0383,0.0419,0.0445,0.0472,0.053,0.051,0.0567,0.0555,0.0565,0.0618,0.0537,0.058,0.0408,0.0363,0.025,0.014,0.0162,0.0024,0.0008,0.0021,0.002,0.002,0.0019,0.0031,0.0031,0.0032,0.0032,0,0.0431,0.0447,0.0499,0.0533,0.0558,0.0592,0.0649,0.0693,0.0688,0.0759,0.0765,0.0717,0.065,0.0494,0.0362,0.022,0.0112,0.0073,0.01,0.0086,-0.0017,-0.0017,-0.003,-0.0031,-0.0032,-0.0032,-0.0033,0,0.0466,0.0499,0.0557,0.0598,0.062,0.0681,0.0735,0.075,0.0803,0.087,0.0915,0.0879,0.0869,0.065,0.0405,0.0191,0.016,0.0053,-0.0017,-0.0009,-0.0023,-0.0021,-0.002,-0.0006,-0.0007,-0.0007,-0.0007,0,0.0528,0.0538,0.0591,0.0674,0.0741,0.0824,0.0901,0.0972,0.1008,0.1079,0.1169,0.1175,0.0959,0.0732,0.0418,0.027,0.0073,0.0041,0.0064,0.0004,0.0012,-0.0002,-0.0001,-0.0008,-0.0008,-0.0008,-0.0008,-0.0008,0.058,0.0621,0.0684,0.0766,0.0839,0.095,0.1045,0.1137,0.1254,0.1344,0.1347,0.1321,0.105,0.0626,0.0388,0.0098,0.0088,-0.0041,-0.004,-0.0038,-0.0035,-0.003,-0.0056,-0.0056,-0.0057,-0.0057,-0.0057,0,0.0644,0.0682,0.077,0.0875,0.0972,0.099,0.1143,0.124,0.1394,0.1433,0.1483,0.1231,0.0982,0.0679,0.025,-0.0001,-0.0024,-0.0081,-0.0059,-0.0057,-0.0055,-0.0052,-0.0078,-0.0079,-0.0079,-0.008,0,0,0.0681,0.0771,0.0817,0.0977,0.1046,0.1175,0.1267,0.1407,0.1458,0.1506,0.1444,0.1374,0.1018,0.0706,0.0386,0.0152,0.0101,0.0103,0.0142,0.0208,0.0213,-0.0014,-0.0004,0,0,0,0,0]}],[{"header":{"parameterUnit":"m.s-1","parameterCategory":2,"la1":30.2991,"la2":30.254,"lo1":-89.0895,"lo2":-89.0444,"dy":0.0017,"dx":0.0017,"nx":28,"ny":28,"refTime":"2024-02-16T09:00:00:Z","depth":"4","parameterNumber":2,"parameterNumberName":"U-component_of_CURRENTS"},"data":[0,0,0,0,0,0,0,0,0,0,0,0,0,0,0,0,0,0,0,0,0,0,0,0,0,0,0,0,0,0,0,0,0,0,0,0,0,0,0,0,0,0,0,0,0,0,0,0,0,0,0,0,0,0,0,0,0,0,0.0909,0.091,0,0.0965,0.0965,0.0966,0.1001,0.1001,0.1001,0.1002,0.1058,0.1059,0.1061,0,0,0,0,0,0,0,0,0,0,0,0,0,0.0848,0.0849,0.0909,0.091,0.0911,0.0965,0.0965,0.0966,0.1001,0.1001,0.1002,0.1002,0.1058,0.1059,0.1061,0,0,0,0,0,0,0,0,0,0,0,0,0,0.0885,0.0849,0.0909,0.0936,0.0939,0.0965,0.0965,0.0966,0.1001,0.1001,0.1002,0.1002,0.1057,0.1059,0.1061,0.1061,0,0,0.1066,0.1067,0,0,0,0,0,0,0,0,0.0883,0.0887,0.0931,0.0934,0.0938,0.0978,0.0965,0.0999,0.1,0.0975,0.1002,0.1002,0.1032,0.1036,0.1043,0.1064,0.1066,0.1066,0.1068,0.1068,0.1069,0,0,0,0,0,0,0,0.088,0.0885,0.0929,0.0932,0.0936,0.0951,0.0956,0.0971,0.0999,0.0978,0.0981,0.099,0.1034,0.1041,0.1045,0.1067,0.1066,0.1068,0.1069,0.107,0.115,0.1151,0,0,0,0,0,0,0.0875,0.0882,0.0928,0.0931,0.0913,0.0952,0.0958,0.0963,0.0999,0.1005,0.0989,0.0991,0.1038,0.1042,0.1047,0.1105,0.1068,0.107,0.1071,0.1148,0.115,0.1151,0,0,0,0,0,0,0.0874,0.0879,0.0925,0.091,0.0917,0.0952,0.0958,0.0964,0.0994,0.1008,0.1014,0.1015,0.1038,0.1044,0.1075,0.1106,0.1071,0.1072,0.1147,0.1149,0.115,0.1187,0,0,0,0,0,0,0.0872,0.0878,0.089,0.0909,0.0918,0.0951,0.0958,0.0965,0.0998,0.1001,0.1032,0.1036,0.1039,0.1072,0.1076,0.1108,0.1074,0.1146,0.1148,0.115,0.1184,0.1189,0.1194,0,0,0,0,0,0.0869,0.0882,0.089,0.0896,0.0929,0.0952,0.0958,0.0983,0.0999,0.1012,0.1033,0.1037,0.1088,0.1074,0.1079,0.1111,0.1145,0.1147,0.115,0.1182,0.1188,0.1194,0,0,0,0,0,0,0.0867,0.0888,0.0896,0.0917,0.0938,0.0959,0.0982,0.0996,0.1024,0.1037,0.1046,0.1052,0.109,0.1094,0.1078,0.114,0.1119,0.1123,0.1142,0.1148,0.1153,0.1155,0.1075,0,0,0,0,0,0.087,0.0883,0.0905,0.0922,0.0938,0.0964,0.0981,0.0998,0.1021,0.1036,0.1055,0.1079,0.11,0.1119,0.1134,0.1167,0.1171,0.1193,0.1197,0.1201,0.1207,0.1232,0.124,0.1159,0.1159,0.1159,0,0,0.0872,0.0888,0.0895,0.0923,0.0946,0.0967,0.0976,0.1011,0.1031,0.1037,0.1077,0.1096,0.1111,0.1147,0.1166,0.1158,0.1228,0.1204,0.1208,0.1211,0.1236,0.1243,0.125,0.116,0.116,0.116,0,0,0.0873,0.0902,0.0908,0.0929,0.0966,0.0987,0.1002,0.1035,0.1057,0.1094,0.1103,0.1137,0.1174,0.1188,0.12,0.1241,0.1248,0.1256,0.1289,0.1314,0.1321,0.1327,0.1345,0.1353,0.1263,0.1263,0.1263,0,0.0881,0.0886,0.0915,0.0929,0.095,0.0998,0.1012,0.1043,0.1081,0.1098,0.1114,0.1175,0.1193,0.1228,0.1251,0.1253,0.1268,0.1265,0.132,0.1326,0.1331,0.1349,0.1357,0.1265,0.1265,0.1265,0.1265,0,0.0872,0.0891,0.0904,0.0936,0.0962,0.099,0.1032,0.1066,0.1108,0.1136,0.1188,0.1218,0.1253,0.1272,0.1282,0.1332,0.1331,0.1318,0.1304,0.1342,0.1358,0.1365,0.1268,0.1267,0.1267,0.1266,0,0,0.0858,0.089,0.0898,0.0905,0.097,0.0985,0.1034,0.1078,0.1114,0.1169,0.1207,0.1265,0.1296,0.1312,0.1331,0.1366,0.1426,0.1372,0.1373,0.1389,0.1486,0.14,0.14,0.1429,0.143,0.1431,0.1483,0,0.0848,0.0858,0.0886,0.0911,0.0921,0.098,0.1018,0.1069,0.1129,0.1183,0.1234,0.1288,0.1307,0.1341,0.1379,0.1418,0.1447,0.1413,0.1449,0.145,0.1367,0.1406,0.1436,0.1488,0.149,0.1491,0.1492,0,0.082,0.0836,0.0845,0.0885,0.0899,0.093,0.1,0.1039,0.1129,0.1178,0.1247,0.13,0.1375,0.138,0.1467,0.145,0.1475,0.1498,0.15,0.1411,0.1377,0.1442,0.1505,0.1504,0.1503,0.1502,0.1501,0,0.0766,0.0804,0.0808,0.0823,0.0883,0.0904,0.0951,0.1037,0.1082,0.1184,0.1235,0.1325,0.1384,0.1436,0.151,0.1498,0.1594,0.1571,0.1508,0.1502,0.1548,0.154,0.1614,0.1614,0.1614,0.1614,0.1614,0,0.0726,0.0734,0.0784,0.0787,0.0812,0.0867,0.0921,0.0977,0.1074,0.1137,0.1231,0.1293,0.1407,0.148,0.1522,0.1547,0.1602,0.1521,0.1512,0.1562,0.1556,0.1553,0.1545,0.1616,0.1615,0.1615,0.1615,0,0.0653,0.0687,0.0692,0.0754,0.078,0.0795,0.09,0.0942,0.1038,0.1121,0.116,0.1293,0.1395,0.1484,0.1581,0.1552,0.1587,0.1573,0.1634,0.1626,0.1473,0.1467,0.1501,0.1498,0.1496,0.1494,0.1493,0,0.0607,0.06,0.0657,0.067,0.0701,0.0752,0.0799,0.0911,0.097,0.1114,0.1146,0.1278,0.1363,0.1429,0.152,0.1581,0.1564,0.1556,0.1503,0.1475,0.1463,0.146,0.1457,0.1489,0.1489,0.1488,0.1487,0,0.0527,0.0553,0.0569,0.0598,0.0638,0.067,0.0749,0.0792,0.0928,0.1032,0.1127,0.1196,0.1298,0.1389,0.1448,0.1484,0.155,0.1532,0.1536,0.1486,0.1462,0.1451,0.1451,0.148,0.1481,0.1482,0.1482,0,0.0474,0.0472,0.0503,0.0524,0.0554,0.0564,0.0626,0.0718,0.0793,0.0984,0.102,0.1159,0.1293,0.1339,0.1395,0.1428,0.1404,0.1348,0.1361,0.137,0.1305,0.1253,0.1206,0,0,0,0,0,0.0418,0.0421,0.0431,0.0443,0.0462,0.0483,0.058,0.0658,0.0821,0.0866,0.0946,0.1048,0.1145,0.1216,0.1228,0.1318,0.139,0.1321,0.1325,0.1438,0.1447,0.1384,0,0,0,0,0,0,0.0388,0.0394,0.0407,0.0361,0.0357,0.0374,0.043,0.054,0.0592,0.0768,0.0839,0.0966,0.1086,0.1131,0.1201,0.1223,0.12,0.1422,0.1419,0.1433,0.1441,0.1448,0.1386,0,0,0,0,0]},{"header":{"parameterUnit":"m.s-1","parameterCategory":2,"la1":30.2991,"la2":30.254,"lo1":-89.0895,"lo2":-89.0444,"dy":0.0017,"dx":0.0017,"nx":28,"ny":28,"refTime":"2024-02-16T09:00:00:Z","depth":"4","parameterNumber":3,"parameterNumberName":"V-component_of_CURRENTS"},"data":[0,0,0,0,0,0,0,0,0,0,0,0,0,0,0,0,0,0,0,0,0,0,0,0,0,0,0,0,0,0,0,0,0,0,0,0,0,0,0,0,0,0,0,0,0,0,0,0,0,0,0,0,0,0,0,0,0,0,0.0114,0.0114,0,0.0095,0.0095,0.0095,0.0088,0.0089,0.0089,0.0089,0.0065,0.0065,0.0064,0,0,0,0,0,0,0,0,0,0,0,0,0,0.0126,0.0126,0.0114,0.0114,0.0114,0.0096,0.0095,0.0095,0.0088,0.0089,0.0089,0.0089,0.0066,0.0065,0.0064,0,0,0,0,0,0,0,0,0,0,0,0,0,0.0114,0.0126,0.0114,0.0109,0.0109,0.0096,0.0095,0.0095,0.0088,0.0089,0.0089,0.0089,0.0066,0.0065,0.0064,0.005,0,0,0.006,0.0059,0,0,0,0,0,0,0,0,0.0115,0.0114,0.011,0.011,0.0109,0.0096,0.0091,0.008,0.0088,0.0095,0.0089,0.0089,0.0076,0.0074,0.0068,0.0049,0.0048,0.006,0.0059,0.0058,0.0058,0,0,0,0,0,0,0,0.0116,0.0114,0.0105,0.011,0.0109,0.0102,0.0101,0.0089,0.0082,0.0094,0.0094,0.0094,0.0075,0.0069,0.0067,0.0047,0.006,0.0059,0.0058,0.0057,0.0018,0.0018,0,0,0,0,0,0,0.0121,0.0115,0.0106,0.0105,0.0114,0.0102,0.0101,0.0099,0.0083,0.0081,0.0094,0.0094,0.0071,0.0068,0.0066,0.0052,0.0058,0.0057,0.0057,0.0018,0.0018,0.0018,0,0,0,0,0,0,0.0122,0.0121,0.0106,0.0111,0.0109,0.0102,0.0099,0.0098,0.0095,0.0083,0.0081,0.0093,0.0071,0.0068,0.0058,0.0051,0.0057,0.0056,0.0019,0.0018,0.0018,0.0023,0,0,0,0,0,0,0.0122,0.0121,0.0122,0.0111,0.0109,0.01,0.0099,0.0098,0.0095,0.0095,0.0081,0.0079,0.0071,0.006,0.0057,0.005,0.0055,0.0019,0.0019,0.0018,0.0023,0.0022,0.0022,0,0,0,0,0,0.0123,0.0122,0.0122,0.0121,0.011,0.01,0.0098,0.0093,0.0095,0.0091,0.0084,0.008,0.0054,0.0059,0.0055,0.0048,0.002,0.0019,0.0018,0.0023,0.0022,0.0022,0,0,0,0,0,0,0.0126,0.0122,0.0121,0.0119,0.0111,0.0099,0.0098,0.0094,0.0085,0.0087,0.0076,0.0074,0.0062,0.0054,0.006,0.0034,0.0035,0.0034,0.004,0.004,0.0039,0.0061,0.0054,0,0,0,0,0,0.0129,0.0129,0.012,0.0119,0.0116,0.0107,0.0104,0.01,0.0091,0.0088,0.0079,0.0068,0.0055,0.0048,0.0036,0.0023,0.0018,0.0015,0.0015,0.0014,0.0029,0.0011,0.0011,0.0016,0.0016,0.0016,0,0,0.0131,0.0128,0.0129,0.0121,0.0115,0.0117,0.0105,0.0101,0.0103,0.0086,0.0085,0.0068,0.0051,0.0037,0.003,0.003,0.0007,0.0013,0.0013,0.0029,0.0011,0.001,0.001,0.0015,0.0015,0.0015,0,0,0.0141,0.0132,0.014,0.0135,0.0129,0.0122,0.0122,0.0111,0.0106,0.0098,0.0087,0.0069,0.005,0.0036,0.0026,0.0017,0.0007,0.0008,0.0022,0.0004,0.0004,0.0004,-0.0014,-0.0015,0.0006,0.0006,0.0006,0,0.0145,0.0159,0.0139,0.0145,0.0152,0.0128,0.0143,0.0126,0.0114,0.0117,0.0101,0.0074,0.0051,0.004,0.003,0.0016,0.0007,0.0025,0.0004,0.0004,0.0004,-0.0014,-0.0016,0.0007,0.0007,0.0007,0.0007,0,0.0164,0.0177,0.0179,0.0184,0.018,0.0188,0.0169,0.0162,0.0151,0.0141,0.0126,0.0088,0.008,0.0054,0.0037,0.0022,0.0016,0.0006,0.0008,0.0004,-0.0015,-0.0017,0.0007,0.0007,0.0007,0.0007,0,0,0.0178,0.0194,0.0197,0.022,0.0209,0.0214,0.0208,0.0208,0.0221,0.018,0.0193,0.0138,0.012,0.0109,0.0075,0.0045,0.0016,0.0025,0.0024,0.0013,-0.0022,-0.0039,-0.0043,0.0002,0.0002,0.0002,-0.0037,0,0.0209,0.0246,0.0239,0.0277,0.03,0.0279,0.0283,0.0273,0.0257,0.0255,0.02,0.0195,0.0139,0.0135,0.0093,0.0042,0.0013,0.0029,-0.0019,-0.002,-0.0031,-0.0045,0.0002,-0.0039,-0.004,-0.004,-0.004,0,0.024,0.0266,0.0316,0.0351,0.0358,0.0372,0.0392,0.0391,0.0366,0.0354,0.0324,0.0285,0.0233,0.0188,0.0095,0.0108,0.0051,0.0,-0.0003,-0.0015,-0.004,-0.0032,-0.0044,-0.0044,-0.0043,-0.0043,-0.0043,0,0.0283,0.0323,0.0376,0.0386,0.041,0.0433,0.0442,0.0431,0.0443,0.0423,0.0425,0.0358,0.0331,0.0244,0.0123,0.0116,0.002,0.0001,-0.0067,-0.0069,-0.0042,-0.0042,-0.0051,-0.0051,-0.0051,-0.0051,-0.0051,0,0.0326,0.0367,0.0409,0.0436,0.0502,0.0493,0.0546,0.0541,0.0541,0.0559,0.0487,0.0474,0.0344,0.0263,0.0153,0.0033,0.0044,-0.0059,-0.0079,-0.0042,-0.0041,-0.0045,-0.0043,-0.0053,-0.0052,-0.0052,-0.0052,0,0.0361,0.039,0.0454,0.0502,0.0527,0.0572,0.0618,0.065,0.0637,0.0656,0.0653,0.0568,0.0458,0.0319,0.0177,0.0082,-0.0035,-0.0077,-0.0025,-0.0041,-0.0117,-0.0115,-0.0147,-0.0148,-0.0149,-0.0149,-0.015,0,0.0384,0.0424,0.0505,0.0552,0.0581,0.0646,0.0691,0.0705,0.0728,0.0704,0.0712,0.0621,0.0543,0.0336,0.0182,-0.0014,-0.0048,-0.0103,-0.0117,-0.011,-0.0126,-0.0123,-0.012,-0.0151,-0.0151,-0.0151,-0.0152,0,0.0424,0.0456,0.0503,0.0596,0.0666,0.0742,0.0798,0.0822,0.0825,0.0819,0.0764,0.0644,0.0521,0.0342,0.0191,0.0044,-0.0068,-0.0112,-0.0111,-0.0125,-0.0116,-0.013,-0.0126,-0.0154,-0.0154,-0.0154,-0.0153,0,0.0451,0.0491,0.0552,0.0633,0.0722,0.0801,0.0834,0.0855,0.0877,0.0839,0.082,0.0673,0.0591,0.0372,0.0226,0.0084,0.0044,-0.0005,-0.0011,-0.001,0.0029,0.0061,0.0065,0,0,0,0,0,0.0476,0.0516,0.0583,0.0673,0.0755,0.0815,0.0884,0.0903,0.0907,0.0882,0.085,0.0728,0.0504,0.0404,0.0262,0.0202,0.0014,0.0029,-0.0045,-0.0169,-0.0166,-0.0147,0,0,0,0,0,0,0.0492,0.0555,0.058,0.0683,0.075,0.0852,0.0906,0.0917,0.0893,0.087,0.0757,0.0691,0.0479,0.0592,0.0261,0.0215,0.0147,-0.0076,-0.0079,-0.0171,-0.0168,-0.0165,-0.0145,0,0,0,0,0]}]]